Location: Newark
(45.9167°N, 5.5000°E)
Time: 19:08:55
(UTC+00:00)

N. Korean satellite - Pass Details

Date: 30 January 2020
Orbit: 456 x 505 km, 97.2° (Epoch: 19 February)

Event Time Altitude Azimuth Distance (km) Brightness Sun altitude
Rises 05:08:08 0° 18° (NNE) 2,556 10.4 -20.1°
Reaches altitude 10° 05:10:15 10° 25° (NNE) 1,679 9.5 -19.7°
Maximum altitude 05:13:44 45° 99° (E) 681 7.7 -19.1°
Drops below altitude 10° 05:17:15 10° 173° (S) 1,691 9.5 -18.5°
Sets 05:19:23 0° 180° (S) 2,575 10.3 -18.1°
